Branson, MO

4:20 PM CDT on March 25, 2017 (GMT -0500)
Branson

Weather History for KBBG - March, 2013

Change the Weather History Date:

Sunday, March 3, 2013

  Actual Average (KHRO) Record (KHRO)
Temperature  
Mean Temperature 39 °F -  
Max Temperature 55 °F 56 °F 83 °F (1974)
Min Temperature 23 °F 37 °F -1 °F (1943)
Degree Days  
Heating Degree Days 26    
Moisture  
Dew Point 21 °F    
Average Humidity 58    
Maximum Humidity 80    
Minimum Humidity 30    
Precipitation  
Precipitation 0.00 in - - ()
Sea Level Pressure  
Sea Level Pressure 30.03 in    
Wind  
Wind Speed 5 mph (SE)    
Max Wind Speed 15 mph    
Max Gust Speed -    
Visibility 10 miles    
Events      
Averages and records for this station are not official NWS values.
T = Trace of Precipitation, MM = Missing Value Source: NWS Daily Summary

Daily Weather History Graph

Daily Weather History Graph

Search for Another Location

Airport or City:

Trip Planner

Search our weather history database for the weather conditions in past years. The results will help you decide how hot, cold, wet, or windy it might be!

Date:

Astronomy

Mar. 03, 2013 Rise Set
Actual Time 6:40 AM CST 6:09 PM CST
Civil Twilight 6:14 AM CST 6:35 PM CST
Nautical Twilight 5:44 AM CST 7:05 PM CST
Astronomical Twilight 5:14 AM CST 7:35 PM CST
Moon No Moon Rise 10:06 AM CST (3/3)
Length of Visible Light 12h 20m
Length of Day
11h 29m
Waning Gibbous, 63% of the Moon is Illuminated
Mar 3
Waning Gibbous
Mar 4
Last Quarter
Mar 11
New
Mar 19
First Quarter
Mar 27
Full

Hourly Weather History & Observations

Time (CST) Temp. Windchill Dew Point Humidity Pressure Visibility Wind Dir Wind Speed Gust Speed Precip Events Conditions
12:15 AM 23.0 °F - 17.6 °F 80% 30.20 in 10.0 mi Calm Calm - N/A   Clear
1:15 AM 23.0 °F - 17.6 °F 80% 30.20 in 10.0 mi Calm Calm - N/A   Clear
1:35 AM 23.0 °F - 17.6 °F 80% 30.20 in 10.0 mi Calm Calm - N/A   Scattered Clouds
1:55 AM 23.0 °F - 17.6 °F 80% 30.20 in 10.0 mi Calm Calm - N/A   Mostly Cloudy
2:15 AM 23.0 °F - 17.6 °F 80% 30.19 in 8.0 mi Calm Calm - N/A   Mostly Cloudy
2:35 AM 24.8 °F - 19.4 °F 80% 30.18 in 9.0 mi Calm Calm - N/A   Mostly Cloudy
2:55 AM 24.8 °F - 19.4 °F 80% 30.17 in 10.0 mi Calm Calm - N/A   Overcast
3:15 AM 26.6 °F 22.6 °F 19.4 °F 74% 30.17 in 10.0 mi SSE 3.5 mph - N/A   Overcast
3:35 AM 26.6 °F 22.6 °F 17.6 °F 69% 30.16 in 10.0 mi South 3.5 mph - N/A   Overcast
3:55 AM 24.8 °F 19.1 °F 17.6 °F 74% 30.15 in 10.0 mi SSE 4.6 mph - N/A   Overcast
4:15 AM 24.8 °F 20.5 °F 19.4 °F 80% 30.15 in 10.0 mi SSE 3.5 mph - N/A   Overcast
4:35 AM 26.6 °F 21.2 °F 19.4 °F 74% 30.15 in 10.0 mi SE 4.6 mph - N/A   Overcast
4:55 AM 26.6 °F 22.6 °F 17.6 °F 69% 30.15 in 10.0 mi South 3.5 mph - N/A   Overcast
5:15 AM 26.6 °F 22.6 °F 17.6 °F 69% 30.15 in 10.0 mi SSE 3.5 mph - N/A   Overcast
6:52 AM 24.8 °F 17.9 °F 17.6 °F 74% 30.14 in 10.0 mi SSE 5.8 mph - N/A   Mostly Cloudy
7:55 AM 26.6 °F 19.1 °F 19.4 °F 74% 30.15 in 10.0 mi SE 6.9 mph - N/A   Mostly Cloudy
8:53 AM 32.0 °F 25.6 °F 19.4 °F 60% 30.13 in 10.0 mi SE 6.9 mph - N/A   Mostly Cloudy
9:52 AM 35.6 °F 29.2 °F 17.6 °F 48% 30.12 in 10.0 mi SSE 8.1 mph - N/A   Mostly Cloudy
10:50 AM 39.2 °F 33.6 °F 17.6 °F 42% 30.10 in 10.0 mi ESE 8.1 mph - N/A   Mostly Cloudy
11:48 AM 44.6 °F 39.7 °F 17.6 °F 34% 30.07 in 10.0 mi SSE 9.2 mph - N/A   Mostly Cloudy
12:47 PM 50.0 °F - 19.4 °F 30% 30.03 in 10.0 mi ESE 8.1 mph - N/A   Mostly Cloudy
1:45 PM 50.0 °F - 23.0 °F 35% 29.99 in 10.0 mi SSE 10.4 mph - N/A   Mostly Cloudy
2:55 PM 53.6 °F - 23.0 °F 30% 29.94 in 10.0 mi SE 15.0 mph - N/A   Mostly Cloudy
3:45 PM 55.4 °F - 24.8 °F 31% 29.93 in 10.0 mi SE 15.0 mph - N/A   Mostly Cloudy
5:50 PM 48.2 °F - 23.0 °F 37% 29.91 in 10.0 mi SE 12.7 mph - N/A   Overcast
6:55 PM 46.4 °F 41.1 °F 24.8 °F 43% 29.91 in 10.0 mi SE 11.5 mph - N/A   Overcast
7:45 PM 44.6 °F 40.2 °F 24.8 °F 46% 29.91 in 10.0 mi ESE 8.1 mph - N/A   Overcast
7:55 PM 44.6 °F 40.2 °F 24.8 °F 46% 29.92 in 10.0 mi SE 8.1 mph - N/A   Clear
8:15 PM 44.6 °F 38.8 °F 24.8 °F 46% 29.91 in 10.0 mi SE 11.5 mph - N/A   Clear
8:45 PM 44.6 °F 38.4 °F 24.8 °F 46% 29.91 in 10.0 mi SE 12.7 mph - N/A   Mostly Cloudy
8:55 PM 42.8 °F 36.6 °F 24.8 °F 49% 29.91 in 10.0 mi SE 11.5 mph - N/A   Clear
9:15 PM 42.8 °F 36.6 °F 24.8 °F 49% 29.91 in 10.0 mi SE 11.5 mph - N/A   Partly Cloudy
9:35 PM 41.0 °F 33.9 °F 24.8 °F 53% 29.90 in 10.0 mi SE 12.7 mph - N/A   Partly Cloudy
9:55 PM 41.0 °F 34.7 °F 24.8 °F 53% 29.90 in 10.0 mi SE 10.4 mph - N/A   Scattered Clouds
10:15 PM 41.0 °F 34.7 °F 24.8 °F 53% 29.90 in 10.0 mi SE 10.4 mph - N/A   Mostly Cloudy
10:35 PM 39.2 °F 32.5 °F 24.8 °F 56% 29.89 in 10.0 mi SE 10.4 mph - N/A   Partly Cloudy
10:55 PM 39.2 °F 32.5 °F 24.8 °F 56% 29.88 in 10.0 mi ESE 10.4 mph - N/A   Clear
11:15 PM 39.2 °F 33.0 °F 24.8 °F 56% 29.88 in 10.0 mi ESE 9.2 mph - N/A   Clear
11:35 PM 39.2 °F 32.0 °F 26.6 °F 61% 29.87 in 10.0 mi ESE 11.5 mph - N/A   Clear
11:55 PM 39.2 °F 31.6 °F 26.6 °F 61% 29.86 in 10.0 mi ESE 12.7 mph - N/A   Clear